Big Piney, WY

8:48 AM MDT on August 17, 2017 (GMT -0600)
Big Piney-Marbleton

Weather History for KBPI - July, 2013

Change the Weather History Date:

Wednesday, July 17, 2013

  Actual Average Record
Temperature  
Mean Temperature 70 °F 63 °F  
Max Temperature 88 °F 81 °F 92 °F (2006)
Min Temperature 51 °F 44 °F 33 °F (2001)
Degree Days  
Heating Degree Days 0 3  
Month to date heating degree days 9 73  
Since 1 June heating degree days 226 378  
Since 1 July heating degree days 9 73  
Cooling Degree Days 5 1  
Month to date cooling degree days 43 9  
Year to date cooling degree days 63 11  
Since 1 June cooling degree days 63 11  
Growing Degree Days 18 (Base 50)    
Moisture  
Dew Point 50 °F    
Average Humidity 60    
Maximum Humidity 96    
Minimum Humidity 23    
Precipitation  
Precipitation 0.11 in 0.02 in 0.27 in (1987)
Month to date precipitation 0.54 0.34  
Year to date precipitation 2.24 3.60  
Sea Level Pressure  
Sea Level Pressure 30.12 in    
Wind  
Wind Speed 6 mph (WNW)    
Max Wind Speed 26 mph    
Max Gust Speed 35 mph    
Visibility 9 miles    
Events Rain , Thunderstorm    
T = Trace of Precipitation, MM = Missing Value Source: NWS Daily Summary

Daily Weather History Graph

Daily Weather History Graph

Search for Another Location

Airport or City:

Trip Planner

Search our weather history database for the weather conditions in past years. The results will help you decide how hot, cold, wet, or windy it might be!

Date:

Astronomy

Jul. 17, 2013 Rise Set
Actual Time 5:58 AM MDT 8:54 PM MDT
Civil Twilight 5:24 AM MDT 9:27 PM MDT
Nautical Twilight 4:42 AM MDT 10:10 PM MDT
Astronomical Twilight 3:52 AM MDT 10:59 PM MDT
Moon 3:45 PM MDT 1:10 AM MDT
Length of Visible Light 16h 03m
Length of Day
14h 56m
Waxing Gibbous, 68% of the Moon is Illuminated
Jul 17
Waxing Gibbous
Jul 22
Full
Jul 29
Last Quarter
Aug 6
New
Aug 14
First Quarter

Hourly Weather History & Observations

Time (MDT) Temp. Dew Point Humidity Pressure Visibility Wind Dir Wind Speed Gust Speed Precip Events Conditions
12:53 AM 57.9 °F 53.1 °F 84% 30.01 in 10.0 mi Calm Calm - N/A   Clear
1:53 AM 55.9 °F 52.0 °F 87% 30.01 in 10.0 mi Calm Calm - N/A   Clear
2:53 AM 53.1 °F 51.1 °F 93% 30.05 in 10.0 mi Calm Calm - N/A   Clear
3:53 AM 53.1 °F 52.0 °F 96% 30.05 in 10.0 mi Calm Calm - N/A   Clear
4:53 AM 53.1 °F 51.1 °F 93% 30.04 in 10.0 mi NW 5.8 mph - N/A   Partly Cloudy
5:53 AM 51.1 °F 50.0 °F 96% 30.09 in 10.0 mi North 3.5 mph - N/A   Clear
6:53 AM 55.0 °F 52.0 °F 89% 30.09 in 10.0 mi NNW 3.5 mph - N/A   Clear
7:53 AM 62.1 °F 53.1 °F 72% 30.10 in 10.0 mi Calm Calm - N/A   Overcast
8:53 AM 64.0 °F 51.1 °F 63% 30.10 in 10.0 mi Calm Calm - N/A   Overcast
9:53 AM 66.9 °F 50.0 °F 54% 30.10 in 10.0 mi Variable 3.5 mph - N/A   Overcast
10:53 AM 72.0 °F 51.1 °F 48% 30.08 in 10.0 mi SW 6.9 mph - N/A   Mostly Cloudy
11:53 AM 75.9 °F 48.0 °F 37% 30.07 in 10.0 mi Variable 5.8 mph - N/A   Clear
12:53 PM 82.0 °F 44.1 °F 26% 30.04 in 10.0 mi North 6.9 mph - N/A   Clear
1:53 PM 82.9 °F 44.1 °F 25% 30.03 in 10.0 mi North 5.8 mph - N/A   Clear
2:53 PM 86.0 °F 44.1 °F 23% 30.00 in 10.0 mi Variable 5.8 mph - N/A   Clear
3:53 PM 84.0 °F 45.0 °F 25% 30.00 in 10.0 mi WSW 8.1 mph - N/A   Partly Cloudy
4:53 PM 82.9 °F 46.9 °F 28% 29.98 in 10.0 mi WSW 4.6 mph - N/A   Scattered Clouds
5:35 PM 82.4 °F 44.6 °F 26% 30.27 in 10.0 mi Variable 4.6 mph - N/A Thunderstorm Partly Cloudy
5:49 PM 82.4 °F 46.4 °F 28% 30.27 in 10.0 mi WSW 4.6 mph - N/A Thunderstorm Mostly Cloudy
5:53 PM 82.0 °F 46.9 °F 29% 29.97 in 10.0 mi West 4.6 mph - N/A Thunderstorm Mostly Cloudy
6:17 PM 75.2 °F 51.8 °F 44% 30.29 in 1.2 mi West 17.3 mph 24.2 mph 0.03 in Rain , Thunderstorm Light Rain
6:26 PM 68.0 °F 55.4 °F 64% 30.31 in 2.5 mi WNW 12.7 mph 24.2 mph 0.08 in Rain , Thunderstorm Thunderstorms and Rain
6:33 PM 69.8 °F 53.6 °F 56% 30.33 in 5.0 mi Variable 5.8 mph 19.6 mph 0.09 in Rain , Thunderstorm Thunderstorms and Rain
6:53 PM 66.0 °F 53.1 °F 63% 30.07 in 10.0 mi South 16.1 mph 27.6 mph 0.10 in Rain , Thunderstorm Light Thunderstorms and Rain
7:30 PM 64.4 °F 53.6 °F 68% 30.33 in 10.0 mi South 13.8 mph - 0.01 in   Overcast
7:53 PM 66.0 °F 54.0 °F 65% 30.06 in 10.0 mi SSW 15.0 mph - 0.01 in   Scattered Clouds
8:53 PM 64.9 °F 52.0 °F 63% 30.06 in 10.0 mi SSW 8.1 mph - N/A   Clear
9:53 PM 63.0 °F 55.0 °F 75% 30.12 in 10.0 mi NW 10.4 mph - N/A   Overcast
10:00 PM 64.4 °F 55.4 °F 73% 30.41 in 10.0 mi NW 12.7 mph - N/A Thunderstorm Overcast
10:17 PM 62.6 °F 55.4 °F 77% 30.42 in 10.0 mi NW 20.7 mph 25.3 mph N/A   Overcast
10:53 PM 63.0 °F 48.9 °F 60% 30.11 in 10.0 mi NNW 23.0 mph 34.5 mph N/A   Mostly Cloudy
11:53 PM 62.1 °F 50.0 °F 65% 30.07 in 10.0 mi NNE 3.5 mph - N/A   Scattered Clouds